Location: Bli��� Lhota
(48.7570°N, 14.0120°E)
Time: 05:09:44
(UTC+00:00)

USA 186 - Pass Details

Date: 18 September 2020
Orbit: 261 x 425 km, 96.9° (Epoch: 12 October)

Event Time Altitude Azimuth Distance (km) Brightness Sun altitude
Exits shadow 18:49:23 15° 185° (S) 1,187 3.8 -16.8°
Maximum altitude 18:51:48 54° 261° (W) 507 2.4 -17.2°
Drops below altitude 10° 18:54:59 10° 339° (NNW) 1,511 5.2 -17.7°
Sets 18:57:04 0° 344° (NNW) 2,396 6.2 -18.0°
